Lid_Strength_Index
4 6 8 8 8 7 7 7 7 6 5 6 6 6 5 4 4 5 4 4 4 4 3 2 1 1 1 0 1 1 0 -0 -0 0 1 1 1 0 -0 -1 -1 -1 -1 -1
6 8 6 5 5 6 6 7 8 7 6 6 6 7 5 4 4 4 4 5 4 4 3 3 2 1 1 1 1 1 0 -0 -0 -0 0 -0 0 0 -0 -1 -1 -2 -2 -1
7 6 5 5 6 7 7 8 8 8 6 5 6 8 8 6 5 4 4 4 4 4 4 3 3 2 1 1 1 1 0 -0 -0 -1 -0 -0 -1 -0 -0 -0 0 -1 -2 -1
6 5 5 6 6 6 8 6 6 7 7 10 6 11 7 6 6 5 5 4 4 4 3 3 3 2 2 1 1 1 0 0 -0 -0 -0 -0 1 2 1 0 -0 -1 -1 -1
6 6 6 7 6 5 7 5 6 6 7 8 8 11 8 9 10 8 6 5 4 3 3 3 3 2 2 1 1 1 0 0 -0 -0 -0 0 0 0 -0 -0 -1 -1 -1 -1
5 4 5 5 5 5 5 6 6 6 8 11 12 14 11 11 8 6 5 5 4 4 3 3 2 2 2 1 1 1 1 0 -0 -0 -0 -0 -0 0 0 0 0 -0 -0 0
6 6 5 4 6 5 6 8 12 13 13 13 9 12 9 7 6 6 5 5 4 4 4 3 3 3 2 2 2 1 1 1 -0 -0 -0 -1 -0 -0 0 0 0 1 2 1
9 9 7 5 6 7 7 7 11 15 14 13 8 11 10 6 5 5 4 5 4 4 3 3 3 2 2 1 1 1 1 1 0 -0 -0 -1 -0 -0 -1 -1 1 1 1 1
9 9 5 5 5 6 7 9 6 10 9 11 10 9 7 6 7 6 5 5 5 4 4 3 2 2 2 1 1 1 1 0 -0 -0 -0 -0 -1 -1 -0 -1 -1 0 -1 0
7 10 6 6 5 5 6 6 11 10 17 19 12 11 11 10 11 6 6 6 5 5 4 3 2 2 1 1 1 0 0 0 -0 -0 -1 -0 -0 -1 -1 -0 -0 -1 -1 -1
6 8 9 6 7 8 8 9 10 10 14 18 17 14 7 9 7 6 6 5 6 5 3 3 2 2 1 1 1 0 0 0 0 0 -0 -1 -1 -1 -1 -0 -0 -1 -1 -1
6 8 11 9 6 5 6 8 8 13 15 12 15 15 7 8 7 5 5 5 5 4 3 3 2 2 1 2 1 1 0 0 -0 -0 -0 -0 -1 -1 -1 -1 -1 -1 -1 -1
6 8 11 9 7 7 9 8 8 9 10 14 16 13 8 7 8 8 5 5 5 5 3 3 2 2 2 2 2 1 1 0 0 -0 0 -0 -0 -0 -0 -1 -1 -1 -1 -1
6 8 10 12 10 8 10 8 8 10 15 13 12 12 11 9 9 8 6 6 6 5 4 3 3 3 2 2 1 1 1 0 0 0 0 0 -0 -0 -1 -1 -1 -1 -1 -1
6 10 9 8 8 8 9 9 10 11 10 15 13 13 11 9 7 6 6 6 7 7 5 5 3 3 2 2 1 1 1 0 0 0 0 0 -0 -1 -1 -1 -1 -1 -1 -1
6 10 9 10 8 8 10 10 10 10 10 9 11 12 7 6 6 7 6 6 7 7 5 5 4 3 2 2 1 1 1 1 0 1 1 0 -0 -0 -0 -0 -0 -1 -0 -1
8 9 10 12 9 9 13 11 10 10 9 9 12 9 7 7 7 7 6 6 6 5 5 5 3 3 2 2 1 1 1 0 0 1 0 0 0 0 -0 -0 -0 -0 -0 -1
8 9 9 12 10 16 10 7 7 9 8 8 8 9 8 8 7 6 6 5 4 4 3 3 3 2 1 1 1 0 0 0 0 0 0 0 0 0 0 0 0 0 -0 0
6 8 10 13 12 10 10 9 9 10 10 7 8 7 7 6 5 6 3 3 3 3 2 2 1 1 1 1 1 1 1 1 1 1 1 0 0 1 0 1 0 0 0 1
6 7 10 11 13 14 11 7 5 6 13 6 6 7 6 5 9 6 3 2 2 2 2 2 1 1 1 1 0 1 1 1 2 1 1 0 0 0 1 1 0 0 0 1
10 10 11 11 12 11 7 6 5 13 12 5 5 5 5 6 5 3 2 3 2 2 2 1 2 2 1 1 1 1 1 2 2 1 0 0 1 1 1 1 1 1 1 1
10 10 11 10 12 14 5 6 9 7 4 4 4 4 4 4 3 3 3 3 3 3 2 2 2 2 3 3 2 3 4 3 3 2 2 2 1 2 2 1 0 0 2 2
10 8 10 9 10 6 5 5 4 4 4 4 4 3 3 4 4 3 4 3 3 2 2 1 2 3 3 4 4 4 5 5 4 4 3 3 3 3 3 2 2 3 2 3
7 5 8 8 7 6 5 4 4 3 3 3 3 3 3 4 4 4 3 3 3 2 2 2 3 4 5 5 6 6 7 7 7 6 6 5 5 6 5 5 4 4 4 4
7 7 7 8 6 5 5 4 4 3 3 3 3 3 3 3 4 3 3 3 3 3 3 4 4 5 6 7 7 8 8 8 9 8 8 8 8 7 7 7 7 7 6 8
6 9 11 11 8 8 6 4 3 4 4 4 4 4 3 3 3 3 3 4 4 5 5 6 6 7 7 8 8 8 8 9 9 9 9 9 9 8 8 8 8 9 9 9